Location: Unspecified
(0.0000°N, 0.0000°E)
Time: 03:24:18
(UTC+00:00)

ESSA 4 - Pass Details

Date: 10 November 2024
Orbit: 1326 x 1439 km, 102.1° (Epoch: 03 December)

Event Time Altitude Azimuth Distance (km) Brightness Sun altitude
Rises 03:57:44 0° 161° (SSE) 4,335 12.4 -25.3°
Reaches altitude 10° 04:00:26 10° 159° (SSE) 3,359 11.8 -24.6°
Maximum altitude 04:08:10 77° 74° (ENE) 1,359 9.2 -22.8°
Drops below altitude 10° 04:15:54 10° 349° (NNW) 3,372 11.0 -21.0°
Sets 04:18:37 0° 347° (NNW) 4,353 11.6 -20.3°
